Palmer, AK

3:38 AM AKDT on September 30, 2016 (GMT -0800)
Palmer Municipal

Weather History for PAAQ - April, 2013

Change the Weather History Date:

Wednesday, April 17, 2013

  Actual Average Record
Temperature  
Mean Temperature 23 °F -  
Max Temperature 35 °F 44 °F 60 °F (1965)
Min Temperature 12 °F 29 °F 4 °F (1963)
Degree Days  
Heating Degree Days 42    
Moisture  
Dew Point 8 °F    
Average Humidity 55    
Maximum Humidity 74    
Minimum Humidity 37    
Precipitation  
Precipitation 0.00 in - - ()
Sea Level Pressure  
Sea Level Pressure 30.12 in    
Wind  
Wind Speed 2 mph (SE)    
Max Wind Speed 9 mph    
Max Gust Speed -    
Visibility 10 miles    
Events      
Averages and records for this station are not official NWS values.
T = Trace of Precipitation, MM = Missing Value Source: NWS Daily Summary

Daily Weather History Graph

Daily Weather History Graph

Search for Another Location

Airport or City:

Trip Planner

Search our weather history database for the weather conditions in past years. The results will help you decide how hot, cold, wet, or windy it might be!

Date:

Astronomy

Apr. 17, 2013 Rise Set
Actual Time 6:26 AM AKDT 9:26 PM AKDT
Civil Twilight 5:36 AM AKDT 10:17 PM AKDT
Nautical Twilight 4:26 AM AKDT 11:28 PM AKDT
Astronomical Twilight 2:28 AM AKDT 1:23 AM AKDT
Moon 11:15 AM AKDT (4/17) 3:47 AM AKDT (4/17)
Length of Visible Light 16h 41m
Length of Day
15h 00m
Waxing Crescent, 44% of the Moon is Illuminated
Apr 17
Waxing Crescent
Apr 18
First Quarter
Apr 25
Full
May 2
Last Quarter
May 9
New

Hourly Weather History & Observations

Time (AKDT) Temp. Windchill Dew Point Humidity Pressure Visibility Wind Dir Wind Speed Gust Speed Precip Events Conditions
12:53 AM 21.0 °F - 9.0 °F 60% 30.09 in 10.0 mi Calm Calm - N/A   Clear
1:53 AM 16.0 °F - 8.1 °F 71% 30.09 in 10.0 mi Calm Calm - N/A   Clear
2:53 AM 15.1 °F - 6.1 °F 68% 30.09 in 10.0 mi Calm Calm - N/A   Clear
3:53 AM 14.0 °F - 7.0 °F 74% 30.09 in 10.0 mi Calm Calm - N/A   Clear
4:53 AM 15.1 °F 7.7 °F 3.0 °F 59% 30.09 in 10.0 mi South 4.6 mph - N/A   Clear
5:53 AM 12.9 °F - 3.0 °F 65% 30.09 in 10.0 mi Calm Calm - N/A   Clear
6:53 AM 12.0 °F - 5.0 °F 73% 30.09 in 10.0 mi Calm Calm - N/A   Clear
7:53 AM 12.9 °F - 3.9 °F 67% 30.10 in 10.0 mi Calm Calm - N/A   Partly Cloudy
8:53 AM 18.0 °F - 3.9 °F 54% 30.10 in 10.0 mi Calm Calm - N/A   Partly Cloudy
9:53 AM 19.9 °F - 3.0 °F 48% 30.11 in 10.0 mi Calm Calm - N/A   Clear
10:53 AM 23.0 °F - 5.0 °F 46% 30.12 in 10.0 mi Calm Calm - N/A   Clear
11:53 AM 25.0 °F 18.1 °F 7.0 °F 46% 30.12 in 10.0 mi SSW 5.8 mph - N/A   Clear
12:53 PM 25.0 °F 20.7 °F 8.1 °F 49% 30.12 in 10.0 mi Variable 3.5 mph - N/A   Clear
1:53 PM 27.0 °F 21.6 °F 10.0 °F 49% 30.12 in 10.0 mi East 4.6 mph - N/A   Clear
2:53 PM 30.9 °F 27.5 °F 7.0 °F 37% 30.13 in 10.0 mi Variable 3.5 mph - N/A   Scattered Clouds
3:53 PM 33.1 °F 30.0 °F 10.9 °F 40% 30.13 in 10.0 mi Variable 3.5 mph - N/A   Mostly Cloudy
4:53 PM 34.0 °F 31.0 °F 10.9 °F 38% 30.12 in 10.0 mi Variable 3.5 mph - N/A   Clear
5:53 PM 32.0 °F 24.2 °F 14.0 °F 48% 30.12 in 10.0 mi SE 9.2 mph - N/A   Scattered Clouds
6:53 PM 30.0 °F 21.7 °F 12.9 °F 49% 30.13 in 10.0 mi SE 9.2 mph - N/A   Clear
7:53 PM 28.0 °F 20.0 °F 12.0 °F 51% 30.13 in 10.0 mi SE 8.1 mph - N/A   Clear
8:53 PM 25.0 °F 17.1 °F 12.0 °F 58% 30.14 in 10.0 mi ESE 6.9 mph - N/A   Clear
9:53 PM 24.1 °F - 10.9 °F 57% 30.15 in 10.0 mi Calm Calm - N/A   Clear
10:53 PM 21.0 °F 13.4 °F 9.0 °F 60% 30.15 in 10.0 mi SE 5.8 mph - N/A   Clear
11:53 PM 21.0 °F 14.6 °F 10.0 °F 63% 30.15 in 10.0 mi SE 4.6 mph - N/A   Clear